| time (UTC) | temp C | wind direction | speed KPH | gust KPH | rain 1hr cm | rain 24hr cm | rain mn cm | humidity % | barometer mb |
| 20260510164335 | 26 | 118 | 3.2 | 9.7 | 0.00 | 0.03 | 0.03 | 76 | 1017.3 |
| 20260510163835 | 27 | 118 | 3.2 | 3.2 | 0.00 | 0.03 | 0.03 | 74 | 1017.2 |
| 20260510163332 | 26 | 80 | 3.2 | 11.3 | 0.00 | 0.03 | 0.03 | 75 | 1017.2 |
| 20260510162831 | 26 | 160 | 4.8 | 9.7 | 0.00 | 0.03 | 0.03 | 76 | 1017.2 |
| 20260510162329 | 26 | 95 | 3.2 | 9.7 | 0.00 | 0.03 | 0.03 | 76 | 1017.4 |
| 20260510161824 | 26 | 97 | 6.4 | 12.9 | 0.00 | 0.03 | 0.03 | 76 | 1017.5 |
| 20260510161321 | 27 | 160 | 6.4 | 11.3 | 0.00 | 0.03 | 0.03 | 75 | 1017.7 |
| 20260510160819 | 26 | 190 | 3.2 | 12.9 | 0.00 | 0.03 | 0.03 | 76 | 1017.5 |
| 20260510160315 | 26 | 101 | 6.4 | 9.7 | 0.00 | 0.03 | 0.03 | 78 | 1017.4 |
| 20260510155814 | 26 | 115 | 6.4 | 17.7 | 0.00 | 0.03 | 0.03 | 79 | 1017.2 |
| 20260510155311 | 26 | 81 | 3.2 | 12.9 | 0.00 | 0.03 | 0.03 | 81 | 1017.0 |
| 20260510154807 | 25 | 150 | 8.0 | 16.1 | 0.00 | 0.03 | 0.03 | 81 | 1017.0 |
| 20260510154303 | 25 | 116 | 9.7 | 12.9 | 0.00 | 0.03 | 0.03 | 81 | 1016.9 |
| 20260510153758 | 25 | 139 | 3.2 | 14.5 | 0.00 | 0.03 | 0.03 | 81 | 1016.9 |
| 20260510153254 | 25 | 87 | 6.4 | 12.9 | 0.00 | 0.03 | 0.03 | 83 | 1017.2 |
| 20260510152751 | 24 | 5 | 3.2 | 12.9 | 0.00 | 0.03 | 0.03 | 87 | 1017.5 |
| 20260510152248 | 24 | 33 | 8.0 | 12.9 | 0.00 | 0.03 | 0.03 | 88 | 1017.4 |
| 20260510151744 | 25 | 38 | 3.2 | 6.4 | 0.00 | 0.03 | 0.03 | 86 | 1017.4 |
| 20260510151243 | 25 | 140 | 4.8 | 9.7 | 0.00 | 0.03 | 0.03 | 84 | 1017.2 |
| 20260510150738 | 24 | 63 | 8.0 | 12.9 | 0.00 | 0.03 | 0.03 | 85 | 1017.5 |
| 20260510150234 | 24 | 85 | 6.4 | 12.9 | 0.00 | 0.03 | 0.03 | 85 | 1017.5 |
| 20260510145730 | 24 | 122 | 4.8 | 11.3 | 0.00 | 0.03 | 0.03 | 87 | 1017.5 |
| 20260510145227 | 23 | 82 | 3.2 | 11.3 | 0.00 | 0.03 | 0.03 | 88 | 1017.6 |
| 20260510144723 | 23 | 78 | 8.0 | 11.3 | 0.00 | 0.03 | 0.03 | 88 | 1017.7 |
| 20260510144220 | 23 | 148 | 6.4 | 9.7 | 0.00 | 0.03 | 0.03 | 88 | 1017.9 |
| 20260510143714 | 23 | 106 | 4.8 | 9.7 | 0.00 | 0.03 | 0.03 | 89 | 1017.4 |
| 20260510143211 | 23 | 107 | 8.0 | 11.3 | 0.00 | 0.03 | 0.03 | 92 | 1017.3 |
| 20260510142708 | 22 | 122 | 6.4 | 6.4 | 0.00 | 0.03 | 0.03 | 95 | 1017.4 |
| 20260510142204 | 22 | 65 | 6.4 | 11.3 | 0.00 | 0.03 | 0.03 | 99 | 1017.2 |
| 20260510141701 | 22 | 37 | 3.2 | 9.7 | 0.00 | 0.03 | 0.03 | 99 | 1017.2 |
| 20260510141200 | 21 | 79 | 3.2 | 9.7 | 0.00 | 0.03 | 0.03 | 99 | 1017.3 |
| 20260510140655 | 21 | 101 | 8.0 | 12.9 | 0.00 | 0.03 | 0.03 | 99 | 1017.5 |
| 20260510140155 | 21 | 91 | 9.7 | 11.3 | 0.00 | 0.03 | 0.03 | 99 | 1017.2 |
| 20260510135650 | 21 | 356 | 4.8 | 11.3 | 0.00 | 0.03 | 0.03 | 99 | 1017.2 |
| 20260510135147 | 21 | 93 | 6.4 | 11.3 | 0.00 | 0.03 | 0.03 | 99 | 1017.3 |
| 20260510134644 | 21 | 83 | 4.8 | 9.7 | 0.00 | 0.03 | 0.03 | 99 | 1017.2 |
| 20260510134141 | 21 | 94 | 6.4 | 11.3 | 0.00 | 0.03 | 0.03 | 99 | 1017.2 |
| 20260510133637 | 21 | 115 | 4.8 | 12.9 | 0.00 | 0.03 | 0.03 | 99 | 1017.2 |
| 20260510133132 | 21 | 116 | 1.6 | 6.4 | 0.00 | 0.03 | 0.03 | 99 | 1017.3 |
| 20260510132630 | 21 | 111 | 4.8 | 6.4 | 0.00 | 0.03 | 0.03 | 99 | 1017.2 |
| 20260510132127 | 21 | 67 | 8.0 | 9.7 | 0.00 | 0.03 | 0.03 | 99 | 1017.0 |
| 20260510131624 | 20 | 88 | 3.2 | 9.7 | 0.00 | 0.03 | 0.03 | 99 | 1017.0 |
| 20260510131121 | 20 | 96 | 3.2 | 11.3 | 0.00 | 0.03 | 0.03 | 99 | 1016.9 |
| 20260510130618 | 20 | 113 | 0.0 | 6.4 | 0.00 | 0.03 | 0.03 | 99 | 1016.8 |
| 20260510130115 | 20 | 52 | 3.2 | 4.8 | 0.00 | 0.03 | 0.03 | 99 | 1016.6 |
| 20260510125612 | 20 | 72 | 0.0 | 3.2 | 0.00 | 0.03 | 0.03 | 99 | 1016.6 |
| 20260510125108 | 20 | 341 | 1.6 | 6.4 | 0.00 | 0.03 | 0.03 | 99 | 1016.4 |
| 20260510124604 | 20 | 13 | 1.6 | 4.8 | 0.00 | 0.03 | 0.03 | 99 | 1016.2 |
| 20260510124101 | 20 | 75 | 0.0 | 4.8 | 0.00 | 0.03 | 0.03 | 99 | 1016.2 |
| 20260510123556 | 20 | 43 | 0.0 | 3.2 | 0.00 | 0.03 | 0.03 | 99 | 1016.2 |
| 20260510123053 | 20 | 350 | 3.2 | 3.2 | 0.00 | 0.03 | 0.03 | 99 | 1016.3 |
| 20260510122549 | 20 | 51 | 1.6 | 6.4 | 0.00 | 0.03 | 0.03 | 99 | 1016.2 |
| 20260510122045 | 20 | 71 | 3.2 | 6.4 | 0.00 | 0.03 | 0.03 | 99 | 1016.1 |
| 20260510121542 | 20 | 76 | 1.6 | 6.4 | 0.00 | 0.03 | 0.03 | 99 | 1016.1 |
| 20260510121039 | 20 | 114 | 3.2 | 4.8 | 0.00 | 0.03 | 0.03 | 99 | 1015.9 |
| 20260510120537 | 20 | 71 | 1.6 | 3.2 | 0.00 | 0.03 | 0.03 | 99 | 1015.9 |
| 20260510120032 | 20 | 100 | 1.6 | 3.2 | 0.00 | 0.03 | 0.03 | 99 | 1016.1 |
| 20260510115529 | 20 | 99 | 1.6 | 3.2 | 0.00 | 0.03 | 0.03 | 99 | 1015.8 |
| 20260510115026 | 20 | 130 | 1.6 | 3.2 | 0.00 | 0.03 | 0.03 | 99 | 1015.9 |
| 20260510114522 | 20 | 100 | 0.0 | 1.6 | 0.00 | 0.03 | 0.03 | 99 | 1015.8 |
| 20260510114018 | 20 | 112 | 3.2 | 4.8 | 0.00 | 0.03 | 0.03 | 99 | 1015.7 |
| 20260510113514 | 20 | 118 | 6.4 | 9.7 | 0.00 | 0.03 | 0.03 | 99 | 1015.5 |
| 20260510113012 | 20 | 115 | 3.2 | 9.7 | 0.00 | 0.03 | 0.03 | 99 | 1015.4 |
| 20260510112508 | 20 | 114 | 1.6 | 1.6 | 0.00 | 0.03 | 0.03 | 99 | 1015.3 |
| 20260510112004 | 20 | 103 | 4.8 | 6.4 | 0.00 | 0.03 | 0.03 | 99 | 1015.2 |
| 20260510111501 | 20 | 90 | 3.2 | 6.4 | 0.00 | 0.03 | 0.03 | 99 | 1015.1 |
| 20260510110957 | 20 | 111 | 4.8 | 4.8 | 0.00 | 0.03 | 0.03 | 99 | 1015.1 |
| 20260510110453 | 20 | 53 | 1.6 | 6.4 | 0.00 | 0.03 | 0.03 | 99 | 1015.2 |
| 20260510105949 | 20 | 92 | 1.6 | 3.2 | 0.00 | 0.03 | 0.03 | 99 | 1015.0 |
| 20260510105445 | 20 | 116 | 3.2 | 3.2 | 0.00 | 0.03 | 0.03 | 99 | 1014.8 |
| 20260510104940 | 20 | 69 | 1.6 | 4.8 | 0.00 | 0.03 | 0.03 | 99 | 1014.8 |
| 20260510104437 | 20 | 76 | 3.2 | 3.2 | 0.00 | 0.03 | 0.03 | 99 | 1014.7 |
| 20260510103933 | 20 | 96 | 0.0 | 0.0 | 0.00 | 0.03 | 0.03 | 99 | 1014.3 |
| 20260510103431 | 20 | 78 | 0.0 | 0.0 | 0.00 | 0.03 | 0.03 | 99 | 1014.5 |
| 20260510102926 | 20 | 101 | 1.6 | 3.2 | 0.00 | 0.03 | 0.03 | 99 | 1014.1 |
| 20260510102422 | 20 | 89 | 1.6 | 1.6 | 0.00 | 0.03 | 0.03 | 99 | 1014.4 |
| 20260510101919 | 20 | 109 | 1.6 | 3.2 | 0.00 | 0.03 | 0.03 | 99 | 1014.1 |
| 20260510101417 | 20 | 111 | 3.2 | 4.8 | 0.00 | 0.03 | 0.03 | 99 | 1014.0 |
| 20260510100914 | 20 | 148 | 1.6 | 4.8 | 0.00 | 0.03 | 0.03 | 99 | 1014.0 |
| 20260510100411 | 20 | 130 | 4.8 | 4.8 | 0.00 | 0.03 | 0.03 | 99 | 1013.8 |
| 20260510095907 | 20 | 162 | 1.6 | 3.2 | 0.00 | 0.03 | 0.03 | 99 | 1014.0 |
| 20260510095403 | 20 | 89 | 0.0 | 1.6 | 0.00 | 0.03 | 0.03 | 99 | 1014.0 |
| 20260510094902 | 20 | 5 | 0.0 | 0.0 | 0.00 | 0.03 | 0.03 | 99 | 1013.8 |
| 20260510094357 | 20 | 110 | 0.0 | 3.2 | 0.00 | 0.03 | 0.03 | 99 | 1014.0 |
| 20260510093854 | 20 | 103 | 3.2 | 6.4 | 0.00 | 0.03 | 0.03 | 99 | 1014.0 |
| 20260510093349 | 20 | 94 | 1.6 | 1.6 | 0.00 | 0.03 | 0.03 | 99 | 1013.9 |
| 20260510092846 | 20 | 56 | 1.6 | 3.2 | 0.00 | 0.03 | 0.03 | 99 | 1014.0 |
| 20260510092342 | 20 | 94 | 1.6 | 3.2 | 0.00 | 0.03 | 0.03 | 99 | 1014.0 |
| 20260510091838 | 20 | 68 | 1.6 | 3.2 | 0.00 | 0.03 | 0.03 | 99 | 1013.6 |
| 20260510091335 | 20 | 52 | 3.2 | 4.8 | 0.00 | 0.03 | 0.03 | 99 | 1013.7 |
| 20260510090832 | 20 | 93 | 0.0 | 3.2 | 0.00 | 0.03 | 0.03 | 99 | 1013.8 |
| 20260510090328 | 20 | 94 | 1.6 | 1.6 | 0.00 | 0.03 | 0.03 | 99 | 1013.6 |
| 20260510085824 | 20 | 87 | 0.0 | 1.6 | 0.00 | 0.03 | 0.03 | 99 | 1013.6 |
| 20260510085324 | 20 | 307 | 0.0 | 3.2 | 0.00 | 0.03 | 0.03 | 99 | 1013.8 |
| 20260510084820 | 20 | 54 | 1.6 | 6.4 | 0.00 | 0.03 | 0.03 | 99 | 1013.7 |
| 20260510084317 | 20 | 77 | 3.2 | 4.8 | 0.00 | 0.03 | 0.03 | 99 | 1013.7 |
| 20260510083814 | 20 | 325 | 0.0 | 4.8 | 0.00 | 0.03 | 0.03 | 99 | 1013.8 |
| 20260510083311 | 20 | 66 | 0.0 | 3.2 | 0.00 | 0.03 | 0.03 | 99 | 1013.7 |
| 20260510082806 | 20 | 29 | 3.2 | 4.8 | 0.00 | 0.03 | 0.03 | 99 | 1013.7 |
| 20260510082306 | 19 | 325 | 0.0 | 1.6 | 0.00 | 0.03 | 0.03 | 99 | 1013.9 |
| 20260510081802 | 18 | 265 | 0.0 | 0.0 | 0.00 | 0.03 | 0.03 | 99 | 1013.7 |
| 20260510081258 | 18 | 281 | 0.0 | 0.0 | 0.00 | 0.03 | 0.03 | 99 | 1013.6 |
| 20260510080754 | 18 | 284 | 0.0 | 0.0 | 0.00 | 0.03 | 0.03 | 99 | 1013.4 |
| 20260510080249 | 18 | 304 | 0.0 | 0.0 | 0.00 | 0.03 | 0.03 | 99 | 1013.3 |
| 20260510075747 | 18 | 284 | 0.0 | 0.0 | 0.00 | 0.03 | 0.03 | 99 | 1013.4 |
| 20260510075244 | 18 | 289 | 0.0 | 0.0 | 0.00 | 0.03 | 0.03 | 99 | 1013.6 |
| 20260510074741 | 18 | 279 | 0.0 | 0.0 | 0.00 | 0.03 | 0.03 | 99 | 1013.4 |
| 20260510074238 | 18 | 277 | 0.0 | 0.0 | 0.00 | 0.03 | 0.03 | 99 | 1013.4 |
| 20260510073734 | 18 | 278 | 0.0 | 0.0 | 0.00 | 0.03 | 0.03 | 99 | 1013.4 |
| 20260510073230 | 19 | 292 | 0.0 | 0.0 | 0.00 | 0.03 | 0.03 | 99 | 1013.2 |
| 20260510072726 | 19 | 308 | 0.0 | 0.0 | 0.13 | 0.03 | 0.03 | 99 | 1013.2 |
| 20260510072222 | 19 | 2 | 0.0 | 0.0 | 0.13 | 0.03 | 0.03 | 99 | 1013.1 |
| 20260510071719 | 19 | 58 | 0.0 | 0.0 | 0.00 | 0.00 | 0.00 | 99 | 1013.0 |
| 20260510071216 | 19 | 159 | 0.0 | 0.0 | 0.00 | 0.00 | 0.00 | 99 | 1013.0 |
| 20260510070714 | 19 | 115 | 0.0 | 0.0 | 0.00 | 0.00 | 0.00 | 99 | 1013.2 |
| 20260510070211 | 19 | 288 | 0.0 | 0.0 | 0.00 | 0.00 | 0.00 | 99 | 1013.1 |
| 20260510065706 | 19 | 316 | 0.0 | 0.0 | 0.00 | 0.00 | 0.00 | 99 | 1013.2 |
| 20260510065202 | 19 | 357 | 1.6 | 1.6 | 0.00 | 0.00 | 0.00 | 99 | 1013.1 |
| 20260510064659 | 19 | 334 | 0.0 | 0.0 | 0.00 | 0.00 | 0.00 | 99 | 1013.0 |
| 20260510064156 | 19 | 295 | 0.0 | 0.0 | 0.00 | 0.00 | 0.00 | 99 | 1013.1 |
| 20260510063653 | 19 | 284 | 0.0 | 0.0 | 0.00 | 0.00 | 0.00 | 99 | 1013.0 |
| 20260510063149 | 19 | 300 | 0.0 | 0.0 | 0.00 | 0.00 | 0.00 | 99 | 1012.8 |
| 20260510062646 | 19 | 269 | 0.0 | 0.0 | 0.00 | 0.00 | 0.00 | 99 | 1012.9 |
| 20260510062142 | 19 | 3 | 0.0 | 0.0 | 0.00 | 0.00 | 0.00 | 99 | 1013.1 |
| 20260510061637 | 19 | 348 | 0.0 | 0.0 | 0.00 | 0.00 | 0.00 | 99 | 1013.3 |
| 20260510061135 | 19 | 276 | 0.0 | 0.0 | 0.00 | 0.00 | 0.00 | 99 | 1013.3 |
| 20260510060631 | 19 | 345 | 0.0 | 0.0 | 0.00 | 0.00 | 0.00 | 99 | 1013.4 |
| 20260510060128 | 19 | 335 | 0.0 | 0.0 | 0.00 | 0.00 | 0.00 | 99 | 1013.4 |
| 20260510055624 | 19 | 335 | 0.0 | 0.0 | 0.00 | 0.00 | 0.00 | 99 | 1013.6 |
| 20260510055122 | 19 | 335 | 0.0 | 0.0 | 0.00 | 0.00 | 0.00 | 99 | 1013.4 |
| 20260510054617 | 19 | 335 | 0.0 | 0.0 | 0.00 | 0.00 | 0.00 | 99 | 1013.5 |
| 20260510054113 | 20 | 335 | 0.0 | 0.0 | 0.00 | 0.00 | 0.00 | 99 | 1013.4 |
| 20260510053612 | 20 | 131 | 0.0 | 0.0 | 0.00 | 0.00 | 0.00 | 99 | 1012.9 |
| 20260510053110 | 20 | 89 | 0.0 | 0.0 | 0.00 | 0.00 | 0.00 | 99 | 1013.2 |
| 20260510052605 | 20 | 58 | 0.0 | 1.6 | 0.00 | 0.00 | 0.00 | 99 | 1013.3 |
| 20260510052102 | 20 | 154 | 0.0 | 0.0 | 0.00 | 0.00 | 0.00 | 99 | 1013.1 |
| 20260510051557 | 20 | 72 | 0.0 | 3.2 | 0.00 | 0.00 | 0.00 | 99 | 1013.2 |
| 20260510051054 | 20 | 124 | 0.0 | 4.8 | 0.00 | 0.00 | 0.00 | 99 | 1013.3 |
| 20260510050552 | 20 | 197 | 3.2 | 4.8 | 0.00 | 0.00 | 0.00 | 99 | 1013.2 |
| 20260510050049 | 20 | 149 | 3.2 | 4.8 | 0.00 | 5.36 | 5.36 | 99 | 1013.3 |
| 20260510045546 | 20 | 182 | 6.4 | 9.7 | 0.00 | 5.36 | 5.36 | 99 | 1013.2 |
| 20260510045042 | 20 | 245 | 1.6 | 6.4 | 0.00 | 5.36 | 5.36 | 99 | 1013.2 |
| 20260510044538 | 20 | 159 | 6.4 | 6.4 | 0.00 | 5.36 | 5.36 | 99 | 1013.1 |
| 20260510044036 | 20 | 157 | 3.2 | 6.4 | 0.00 | 5.36 | 5.36 | 99 | 1013.1 |
| 20260510043531 | 20 | 170 | 4.8 | 6.4 | 0.00 | 5.36 | 5.36 | 99 | 1013.4 |
| 20260510043027 | 20 | 143 | 1.6 | 3.2 | 0.00 | 5.36 | 5.36 | 99 | 1013.4 |
| 20260510042521 | 20 | 154 | 3.2 | 4.8 | 0.00 | 5.36 | 5.36 | 99 | 1013.5 |
| 20260510042021 | 20 | 147 | 3.2 | 6.4 | 0.00 | 5.36 | 5.36 | 99 | 1013.6 |
| 20260510041520 | 20 | 142 | 1.6 | 3.2 | 0.00 | 5.36 | 5.36 | 99 | 1013.6 |
| 20260510041017 | 20 | 146 | 3.2 | 4.8 | 0.00 | 5.36 | 5.36 | 99 | 1013.5 |
| 20260510040513 | 20 | 143 | 1.6 | 6.4 | 0.00 | 5.36 | 5.36 | 99 | 1013.4 |
| 20260510040009 | 20 | 207 | 4.8 | 12.9 | 0.00 | 5.36 | 5.36 | 99 | 1013.1 |
| 20260510035506 | 20 | 177 | 12.9 | 16.1 | 0.00 | 5.36 | 5.36 | 99 | 1013.2 |
| 20260510035005 | 20 | 160 | 4.8 | 14.5 | 0.00 | 5.36 | 5.36 | 99 | 1013.4 |
| 20260510034504 | 20 | 174 | 8.0 | 11.3 | 0.00 | 5.36 | 5.36 | 99 | 1013.6 |
| 20260510034000 | 20 | 165 | 8.0 | 14.5 | 0.00 | 5.36 | 5.36 | 99 | 1013.8 |
| 20260510033456 | 20 | 196 | 6.4 | 9.7 | 0.00 | 5.36 | 5.36 | 99 | 1014.0 |
| 20260510032954 | 20 | 222 | 6.4 | 6.4 | 0.00 | 5.36 | 5.36 | 99 | 1014.1 |
| 20260510032451 | 20 | 258 | 0.0 | 1.6 | 0.00 | 5.36 | 5.36 | 99 | 1014.1 |
| 20260510031951 | 20 | 243 | 0.0 | 1.6 | 0.00 | 5.36 | 5.36 | 99 | 1013.9 |
| 20260510031447 | 20 | 242 | 0.0 | 0.0 | 0.00 | 5.36 | 5.36 | 99 | 1013.7 |
| 20260510030942 | 20 | 269 | 0.0 | 0.0 | 0.00 | 5.36 | 5.36 | 99 | 1014.1 |
| 20260510030437 | 20 | 238 | 0.0 | 3.2 | 0.00 | 5.36 | 5.36 | 99 | 1014.3 |
| 20260510025936 | 20 | 237 | 0.0 | 0.0 | 0.00 | 5.36 | 5.36 | 99 | 1014.4 |
| 20260510025433 | 20 | 267 | 0.0 | 0.0 | 0.00 | 5.36 | 5.36 | 99 | 1014.1 |
| 20260510024930 | 20 | 276 | 0.0 | 0.0 | 0.00 | 5.36 | 5.36 | 99 | 1014.3 |
| 20260510024426 | 20 | 258 | 0.0 | 0.0 | 0.00 | 5.36 | 5.36 | 99 | 1014.5 |
| 20260510023922 | 20 | 263 | 0.0 | 0.0 | 0.00 | 5.36 | 5.36 | 99 | 1014.3 |
| 20260510023419 | 20 | 269 | 0.0 | 0.0 | 0.00 | 5.36 | 5.36 | 99 | 1013.9 |
| 20260510022916 | 20 | 224 | 4.8 | 6.4 | 0.00 | 5.36 | 5.36 | 99 | 1013.7 |
| 20260510022415 | 20 | 239 | 0.0 | 3.2 | 0.00 | 5.36 | 5.36 | 99 | 1013.6 |
| 20260510021914 | 20 | 199 | 3.2 | 3.2 | 0.00 | 5.36 | 5.36 | 99 | 1013.5 |
| 20260510021413 | 20 | 195 | 1.6 | 4.8 | 0.00 | 5.36 | 5.36 | 99 | 1013.4 |
| 20260510020909 | 20 | 212 | 3.2 | 6.4 | 0.00 | 5.36 | 5.36 | 99 | 1013.5 |
| 20260510020404 | 20 | 217 | 0.0 | 3.2 | 0.00 | 5.36 | 5.36 | 99 | 1013.8 |
| 20260510015900 | 20 | 176 | 3.2 | 4.8 | 0.00 | 5.36 | 5.36 | 99 | 1013.7 |
| 20260510015356 | 20 | 222 | 0.0 | 3.2 | 0.00 | 5.36 | 5.36 | 99 | 1013.9 |
| 20260510014851 | 20 | 206 | 1.6 | 4.8 | 0.00 | 5.36 | 5.36 | 99 | 1013.7 |
| 20260510014349 | 20 | 210 | 6.4 | 11.3 | 0.00 | 5.36 | 5.36 | 99 | 1013.6 |
| 20260510013845 | 20 | 192 | 3.2 | 9.7 | 0.00 | 5.36 | 5.36 | 99 | 1013.7 |
| 20260510013340 | 20 | 185 | 6.4 | 11.3 | 0.00 | 5.36 | 5.36 | 99 | 1013.5 |
| 20260510012835 | 20 | 121 | 1.6 | 6.4 | 0.00 | 5.36 | 5.36 | 99 | 1013.3 |
| 20260510012335 | 20 | 173 | 4.8 | 6.4 | 0.00 | 5.36 | 5.36 | 99 | 1013.5 |
| 20260510011830 | 20 | 122 | 4.8 | 6.4 | 0.00 | 5.36 | 5.36 | 99 | 1013.3 |
| 20260510011326 | 20 | 202 | 6.4 | 9.7 | 0.00 | 5.36 | 5.36 | 99 | 1013.4 |
| 20260510010823 | 20 | 146 | 4.8 | 11.3 | 0.00 | 5.36 | 5.36 | 99 | 1013.1 |
| 20260510010320 | 20 | 233 | 4.8 | 9.7 | 0.00 | 5.36 | 5.36 | 99 | 1013.2 |
| 20260510005817 | 20 | 170 | 8.0 | 11.3 | 0.00 | 5.36 | 5.36 | 99 | 1013.2 |
| 20260510005313 | 20 | 191 | 3.2 | 9.7 | 0.00 | 5.36 | 5.36 | 99 | 1013.3 |
| 20260510004811 | 20 | 191 | 6.4 | 9.7 | 0.00 | 5.36 | 5.36 | 99 | 1013.1 |
| 20260510004308 | 20 | 222 | 6.4 | 11.3 | 0.00 | 5.36 | 5.36 | 99 | 1013.3 |
| 20260510003805 | 20 | 123 | 4.8 | 9.7 | 0.00 | 5.36 | 5.36 | 99 | 1013.2 |
| 20260510003302 | 20 | 148 | 3.2 | 4.8 | 0.00 | 5.36 | 5.36 | 99 | 1013.2 |
| 20260510002801 | 20 | 155 | 4.8 | 12.9 | 0.00 | 5.36 | 5.36 | 99 | 1013.1 |
| 20260510002259 | 20 | 142 | 1.6 | 6.4 | 0.00 | 5.36 | 5.36 | 99 | 1013.1 |
| 20260510001755 | 20 | 161 | 3.2 | 4.8 | 0.00 | 5.36 | 5.36 | 99 | 1013.2 |
| 20260510001253 | 20 | 153 | 1.6 | 1.6 | 0.00 | 5.36 | 5.36 | 99 | 1013.2 |
| 20260510000748 | 20 | 185 | 0.0 | 1.6 | 0.00 | 5.36 | 5.36 | 99 | 1013.1 |
| 20260510000248 | 20 | 169 | 3.2 | 6.4 | 0.00 | 5.36 | 5.36 | 99 | 1013.1 |
| 20260509235744 | 20 | 163 | 4.8 | 4.8 | 0.00 | 5.36 | 5.36 | 99 | 1013.0 |
| 20260509235240 | 20 | 150 | 1.6 | 4.8 | 0.00 | 5.36 | 5.36 | 99 | 1013.3 |
| 20260509234735 | 20 | 219 | 1.6 | 4.8 | 0.00 | 5.36 | 5.36 | 99 | 1013.2 |
| 20260509234233 | 20 | 149 | 4.8 | 6.4 | 0.00 | 5.36 | 5.36 | 99 | 1013.0 |
| 20260509233731 | 20 | 173 | 1.6 | 4.8 | 0.18 | 5.36 | 5.36 | 99 | 1013.1 |
| 20260509233228 | 20 | 189 | 11.3 | 12.9 | 0.18 | 5.36 | 5.36 | 99 | 1012.9 |
| 20260509232724 | 20 | 208 | 3.2 | 9.7 | 0.00 | 5.33 | 5.33 | 99 | 1012.9 |
| 20260509232221 | 20 | 117 | 4.8 | 11.3 | 0.13 | 5.33 | 5.33 | 99 | 1013.2 |
| 20260509231717 | 20 | 185 | 3.2 | 3.2 | 0.30 | 5.33 | 5.33 | 99 | 1013.4 |
| 20260509231215 | 20 | 204 | 3.2 | 6.4 | 0.30 | 5.31 | 5.31 | 99 | 1013.6 |
| 20260509230713 | 20 | 151 | 0.0 | 3.2 | 0.43 | 5.28 | 5.28 | 99 | 1013.5 |
| 20260509230209 | 20 | 221 | 1.6 | 1.6 | 0.30 | 5.23 | 5.23 | 99 | 1013.4 |
| 20260509225705 | 20 | 169 | 3.2 | 9.7 | 0.00 | 5.18 | 5.18 | 99 | 1013.4 |
| 20260509225201 | 20 | 189 | 4.8 | 6.4 | 0.13 | 5.18 | 5.18 | 99 | 1013.5 |
| 20260509224656 | 20 | 214 | 3.2 | 4.8 | 0.13 | 5.18 | 5.18 | 99 | 1013.3 |
| 20260509224154 | 20 | 214 | 6.4 | 6.4 | 0.00 | 5.16 | 5.16 | 99 | 1013.3 |
| 20260509223650 | 20 | 163 | 4.8 | 6.4 | 0.00 | 5.16 | 5.16 | 99 | 1013.0 |
| 20260509223147 | 20 | 204 | 3.2 | 9.7 | 0.00 | 5.16 | 5.16 | 99 | 1012.9 |
| 20260509222644 | 20 | 199 | 4.8 | 9.7 | 0.00 | 5.16 | 5.16 | 99 | 1013.0 |
| 20260509222139 | 20 | 157 | 4.8 | 4.8 | 0.00 | 5.16 | 5.16 | 99 | 1012.8 |
| 20260509221636 | 20 | 195 | 3.2 | 4.8 | 0.00 | 5.16 | 5.16 | 99 | 1012.6 |
| 20260509221132 | 20 | 148 | 3.2 | 4.8 | 0.00 | 5.16 | 5.16 | 99 | 1012.6 |
| 20260509220628 | 20 | 162 | 0.0 | 0.0 | 0.00 | 5.16 | 5.16 | 99 | 1012.4 |
| 20260509220124 | 20 | 157 | 0.0 | 3.2 | 0.00 | 5.16 | 5.16 | 99 | 1012.5 |
| 20260509215620 | 20 | 96 | 0.0 | 3.2 | 0.18 | 5.16 | 5.16 | 99 | 1012.8 |
| 20260509215117 | 20 | 200 | 3.2 | 6.4 | 0.18 | 5.16 | 5.16 | 99 | 1013.1 |
| 20260509214614 | 20 | 247 | 0.0 | 3.2 | 0.00 | 5.13 | 5.13 | 99 | 1012.7 |
| 20260509214111 | 20 | 216 | 6.4 | 6.4 | 0.00 | 5.13 | 5.13 | 99 | 1013.0 |
| 20260509213607 | 20 | 238 | 3.2 | 11.3 | 0.00 | 5.13 | 5.13 | 99 | 1013.2 |
| 20260509213103 | 20 | 224 | 3.2 | 6.4 | 0.00 | 5.13 | 5.13 | 99 | 1013.1 |
| 20260509212601 | 20 | 201 | 6.4 | 14.5 | 0.00 | 5.13 | 5.13 | 99 | 1012.7 |
| 20260509212058 | 20 | 156 | 3.2 | 6.4 | 0.00 | 5.13 | 5.13 | 99 | 1012.6 |
| 20260509211554 | 20 | 144 | 6.4 | 9.7 | 0.00 | 5.13 | 5.13 | 99 | 1012.5 |
| 20260509211050 | 20 | 151 | 4.8 | 14.5 | 0.00 | 5.13 | 5.13 | 99 | 1012.4 |
| 20260509210547 | 20 | 146 | 6.4 | 6.4 | 0.00 | 5.13 | 5.13 | 99 | 1012.3 |
| 20260509210044 | 20 | 154 | 9.7 | 12.9 | 0.00 | 5.13 | 5.13 | 99 | 1012.4 |
| 20260509205544 | 20 | 186 | 9.7 | 12.9 | 0.00 | 5.13 | 5.13 | 99 | 1012.2 |
| 20260509205039 | 20 | 210 | 4.8 | 6.4 | 0.00 | 5.13 | 5.13 | 99 | 1012.3 |
| 20260509204536 | 20 | 122 | 8.0 | 9.7 | 0.00 | 5.13 | 5.13 | 99 | 1012.0 |
| 20260509204032 | 20 | 108 | 6.4 | 9.7 | 0.00 | 5.13 | 5.13 | 99 | 1012.4 |
| 20260509203528 | 20 | 151 | 4.8 | 6.4 | 0.00 | 5.13 | 5.13 | 99 | 1012.4 |
| 20260509203027 | 20 | 128 | 6.4 | 12.9 | 0.00 | 5.13 | 5.13 | 99 | 1012.4 |
| 20260509202521 | 20 | 166 | 3.2 | 9.7 | 0.00 | 5.13 | 5.13 | 99 | 1012.5 |
| 20260509202017 | 20 | 161 | 4.8 | 4.8 | 0.00 | 5.13 | 5.13 | 99 | 1013.0 |
| 20260509201512 | 20 | 201 | 3.2 | 4.8 | 0.00 | 5.13 | 5.13 | 99 | 1012.9 |
| 20260509201010 | 20 | 99 | 1.6 | 11.3 | 0.00 | 5.13 | 5.13 | 99 | 1013.2 |
| 20260509200510 | 20 | 174 | 0.0 | 1.6 | 0.18 | 5.13 | 5.13 | 99 | 1013.6 |
| 20260509200007 | 20 | 232 | 3.2 | 3.2 | 0.30 | 5.13 | 5.13 | 99 | 1013.6 |
| 20260509195502 | 20 | 193 | 6.4 | 9.7 | 0.30 | 5.11 | 5.11 | 99 | 1013.6 |
| 20260509195001 | 20 | 204 | 3.2 | 4.8 | 0.30 | 5.08 | 5.08 | 99 | 1013.5 |
| 20260509194457 | 20 | 189 | 0.0 | 3.2 | 0.13 | 5.05 | 5.05 | 99 | 1013.6 |
| 20260509193955 | 20 | 193 | 0.0 | 6.4 | 0.18 | 5.03 | 5.03 | 99 | 1013.5 |
| 20260509193454 | 20 | 119 | 3.2 | 11.3 | 0.18 | 5.03 | 5.03 | 99 | 1013.4 |
| 20260509192951 | 20 | 132 | 4.8 | 6.4 | 0.00 | 5.00 | 5.00 | 99 | 1013.6 |
| 20260509192448 | 20 | 143 | 3.2 | 4.8 | 0.13 | 5.00 | 5.00 | 99 | 1013.7 |
| 20260509191943 | 19 | 142 | 1.6 | 4.8 | 0.00 | 4.98 | 4.98 | 99 | 1013.9 |
| 20260509191438 | 19 | 188 | 1.6 | 4.8 | 0.18 | 4.98 | 4.98 | 99 | 1014.3 |
| 20260509190934 | 19 | 259 | 0.0 | 0.0 | 0.48 | 4.98 | 4.98 | 99 | 1014.4 |
| 20260509190431 | 19 | 238 | 0.0 | 0.0 | 0.18 | 4.93 | 4.93 | 99 | 1014.3 |
| 20260509185929 | 19 | 167 | 0.0 | 3.2 | 0.13 | 4.90 | 4.90 | 99 | 1014.3 |
| 20260509185426 | 19 | 201 | 3.2 | 6.4 | 0.13 | 4.90 | 4.90 | 99 | 1014.1 |
| 20260509184923 | 19 | 151 | 6.4 | 11.3 | 0.18 | 4.88 | 4.88 | 99 | 1013.8 |
| 20260509184420 | 19 | 149 | 3.2 | 4.8 | 0.30 | 4.88 | 4.88 | 99 | 1013.7 |
| 20260509183917 | 19 | 104 | 1.6 | 4.8 | 0.30 | 4.85 | 4.85 | 99 | 1013.7 |
| 20260509183417 | 19 | 245 | 0.0 | 3.2 | 0.36 | 4.83 | 4.83 | 99 | 1013.8 |
| 20260509182914 | 19 | 125 | 6.4 | 6.4 | 0.18 | 4.80 | 4.80 | 99 | 1013.5 |
| 20260509182410 | 19 | 218 | 0.0 | 0.0 | 0.13 | 4.78 | 4.78 | 99 | 1013.9 |
| 20260509181908 | 19 | 203 | 4.8 | 9.7 | 0.00 | 4.75 | 4.75 | 99 | 1014.1 |
| 20260509181405 | 19 | 227 | 1.6 | 6.4 | 0.18 | 4.75 | 4.75 | 99 | 1013.9 |
| 20260509180903 | 19 | 186 | 6.4 | 6.4 | 0.18 | 4.75 | 4.75 | 99 | 1013.7 |
| 20260509180358 | 19 | 160 | 3.2 | 6.4 | 0.00 | 4.72 | 4.72 | 99 | 1013.9 |
| 20260509175855 | 19 | 147 | 4.8 | 6.4 | 0.13 | 4.72 | 4.72 | 99 | 1013.8 |
| 20260509175351 | 19 | 96 | 4.8 | 11.3 | 0.30 | 4.72 | 4.72 | 99 | 1013.8 |
| 20260509174847 | 19 | 162 | 8.0 | 11.3 | 0.18 | 4.70 | 4.70 | 99 | 1013.9 |
| 20260509174344 | 19 | 114 | 3.2 | 11.3 | 0.13 | 4.67 | 4.67 | 99 | 1013.7 |
| 20260509173839 | 19 | 145 | 6.4 | 14.5 | 0.13 | 4.67 | 4.67 | 99 | 1013.5 |
| 20260509173335 | 19 | 135 | 17.7 | 22.5 | 0.00 | 4.65 | 4.65 | 99 | 1013.8 |
| 20260509172831 | 19 | 153 | 4.8 | 9.7 | 0.18 | 4.65 | 4.65 | 99 | 1014.2 |
| 20260509172328 | 19 | 106 | 6.4 | 6.4 | 0.30 | 4.65 | 4.65 | 99 | 1014.0 |
| 20260509171824 | 18 | 136 | 3.2 | 9.7 | 0.30 | 4.62 | 4.62 | 99 | 1014.5 |
| 20260509171320 | 18 | 201 | 6.4 | 9.7 | 0.97 | 4.60 | 4.60 | 99 | 1014.3 |
| 20260509170816 | 18 | 119 | 1.6 | 4.8 | 1.37 | 4.55 | 4.55 | 99 | 1014.2 |
| 20260509170312 | 18 | 130 | 6.4 | 9.7 | 1.19 | 4.42 | 4.42 | 99 | 1014.3 |
| 20260509165812 | 18 | 198 | 4.8 | 9.7 | 1.68 | 4.29 | 4.29 | 99 | 1014.5 |
| 20260509165307 | 18 | 91 | 3.2 | 4.8 | 1.98 | 4.19 | 4.19 | 99 | 1014.3 |